Weather Roundup
Issued by NWS Chicago, IL

Home | Current Version | Previous Version | Text Only | Print | Product List | Glossary Off
Versions: 1 2 3 4 5 6 7 8 9 10 11 12 13 14 15 16 17 18 19 20 21 22 23 24 25 26 27 28 29 30 31 32 33 34 35 36 37 38 39 40 41 42 43 44 45 46 47 48 49 50

000
NZUS59 KLOT 270209
HRRLOT

CHICAGO AREA WEATHER ROUNDUP
NATIONAL WEATHER SERVICE CHICAGO/ROMEOVILLE IL
900 PM CDT MON JUN 26 2017

NOTE: "FAIR" INDICATES FEW OR NO CLOUDS BELOW 12,000 FEET WITH NO
SIGNIFICANT WEATHER AND/OR OBSTRUCTIONS TO VISIBILITY.

* THESE STATIONS ARE NOT UNDER NWS QUALITY CONTROL. THEY ALSO MAY NOT
  REPORT WEATHER SUCH AS PRECIPITATION OR FOG.

ILZ005-006-012>014-019>023-270300-
NORTHEAST ILLINOIS

CITY           SKY/WX    TMP DP  RH WIND       PRES   REMARKS
OHARE          PTCLDY    63  43  48 NW13      30.05R
MIDWAY         PTCLDY    64  43  46 NW15G24   30.06R
AURORA         CLEAR     58  46  64 N9        30.08R
LANSING*       MOCLDY    63  41  44 NW12G17   30.06R
JOLIET*        CLEAR     64  44  47 N5        30.07R
WAUKEGAN       CLEAR     58  47  66 W3        30.05R
DUPAGE AIRPORT CLEAR     61  45  55 NW12      30.06R
WHEELING       CLEAR     61  46  57 NW9       30.07R
MORRIS*        CLEAR     62  44  51 N3        30.06R
LEWIS AIRPORT* PTCLDY    62  40  45 N9        30.07R
NORTHERLY ISL    N/A     63  42  46 W8          N/A
$$

WIZ051-052-058>065-066-070>072-270300-
SOUTHEAST WISCONSIN

CITY           SKY/WX    TMP DP  RH WIND       PRES   REMARKS
MILWAUKEE      MOCLDY    61  47  59 NW13      30.05R
KENOSHA*       MOCLDY    59  46  62 NW8       30.06R
RACINE*        CLOUDY    62  44  51 N7        30.06S
WAUKESHA       MOCLDY    57  46  67 N5        30.07R
WEST BEND      CLOUDY    55  50  82 NW3       30.05S
$$

INZ001>003-010>013-019-020-270300-
NORTHWEST INDIANA

CITY           SKY/WX    TMP DP  RH WIND       PRES   REMARKS
GARY*          PTCLDY    64  41  42 NW14G26   30.05S
MICHIGAN CITY* NOT AVBL
RENSSELAER*    NOT AVBL
VALPARAISO     PTCLDY    60  50  69 N3        30.06S
$$

LMZ740>746-270300-
SOUTHERN LAKE MICHIGAN

STATION/POSITION TIME  SKY/WX   TEMP WIND        PRES    VSBY
                                AIR  DIR/SP/G
                 (UTC)          (F)  (DEG/KT/KT) (MB)    (MI)
HARRISON CRIB    0140            64  310/ 15/ 19   N/A
BURNHAM HARBOR   0200            63                N/A
CALUMET HARBOR   0124            64  310/ 10/ 13 1016.9
BURNS HARBOR     0140            63  340/ 14/ 19 1017.6S
MICHIGAN CITY    0140            62  330/ 20/ 22   N/A
$$

ABBREVIATIONS USED IN REMARKS
   TC - TEMPERATURE IN CELSIUS
  WCI - WIND CHILL INDEX
   HX - HEAT INDEX
  VSB - VISIBILITY
$$



USA.gov is the U.S. government's official web portal to all federal, state and local government web resources and services.